TimeEDT,TemperatureF,Dew PointF,Humidity,Sea Level PressureIn,VisibilityMPH,Wind Direction,Wind SpeedMPH,Gust SpeedMPH,PrecipitationIn,Events,Conditions,WindDirDegrees,DateUTC
12:15 AM,59.0,53.6,82,30.13,10.0,Calm,Calm,-,N/A,,Clear,0,2013-10-13 04:15:00
12:35 AM,60.8,53.6,77,30.12,10.0,Calm,Calm,-,N/A,,Clear,0,2013-10-13 04:35:00
12:55 AM,60.8,51.8,72,30.13,10.0,Calm,Calm,-,N/A,,Clear,0,2013-10-13 04:55:00
1:15 AM,59.0,53.6,82,30.12,10.0,NE,3.5,-,N/A,,Clear,50,2013-10-13 05:15:00
1:35 AM,57.2,51.8,82,30.13,10.0,Calm,Calm,-,N/A,,Clear,0,2013-10-13 05:35:00
1:55 AM,57.2,53.6,88,30.14,10.0,Calm,Calm,-,N/A,,Clear,0,2013-10-13 05:55:00
2:15 AM,57.2,53.6,88,30.13,10.0,Calm,Calm,-,N/A,,Clear,0,2013-10-13 06:15:00
2:35 AM,59.0,51.8,77,30.14,10.0,Calm,Calm,-,N/A,,Clear,0,2013-10-13 06:35:00
2:55 AM,55.4,51.8,88,30.14,10.0,Calm,Calm,-,N/A,,Clear,0,2013-10-13 06:55:00
3:15 AM,55.4,51.8,88,30.14,10.0,Calm,Calm,-,N/A,,Clear,0,2013-10-13 07:15:00
3:35 AM,55.4,51.8,88,30.14,10.0,Calm,Calm,-,N/A,,Clear,0,2013-10-13 07:35:00
3:55 AM,55.4,51.8,88,30.14,10.0,Calm,Calm,-,N/A,,Clear,0,2013-10-13 07:55:00
4:15 AM,53.6,51.8,94,30.14,10.0,Calm,Calm,-,N/A,,Clear,0,2013-10-13 08:15:00
4:35 AM,55.4,53.6,94,30.14,10.0,Calm,Calm,-,N/A,,Clear,0,2013-10-13 08:35:00
4:55 AM,55.4,51.8,88,30.14,10.0,Calm,Calm,-,N/A,,Clear,0,2013-10-13 08:55:00
5:15 AM,55.4,51.8,88,30.15,10.0,Calm,Calm,-,N/A,,Clear,0,2013-10-13 09:15:00
5:35 AM,55.4,51.8,88,30.16,10.0,Calm,Calm,-,N/A,,Clear,0,2013-10-13 09:35:00
5:55 AM,53.6,51.8,94,30.16,10.0,Calm,Calm,-,N/A,,Scattered Clouds,0,2013-10-13 09:55:00
6:15 AM,53.6,50.0,88,30.17,10.0,Calm,Calm,-,N/A,,Clear,0,2013-10-13 10:15:00
6:35 AM,53.6,51.8,94,30.17,7.0,Calm,Calm,-,N/A,,Clear,0,2013-10-13 10:35:00
6:55 AM,53.6,50.0,88,30.17,7.0,Calm,Calm,-,N/A,,Clear,0,2013-10-13 10:55:00
7:15 AM,53.6,50.0,88,30.17,7.0,Calm,Calm,-,N/A,,Clear,0,2013-10-13 11:15:00
7:35 AM,51.8,50.0,94,30.17,7.0,Calm,Calm,-,N/A,,Clear,0,2013-10-13 11:35:00
7:55 AM,51.8,50.0,94,30.18,7.0,Calm,Calm,-,N/A,,Clear,0,2013-10-13 11:55:00
8:15 AM,53.6,51.8,94,30.19,7.0,Calm,Calm,-,N/A,,Clear,0,2013-10-13 12:15:00
8:35 AM,53.6,50.0,88,30.19,10.0,Calm,Calm,-,N/A,,Clear,0,2013-10-13 12:35:00
8:55 AM,55.4,53.6,94,30.20,10.0,Calm,Calm,-,N/A,,Clear,0,2013-10-13 12:55:00
9:15 AM,59.0,55.4,88,30.20,10.0,Calm,Calm,-,N/A,,Clear,0,2013-10-13 13:15:00
9:35 AM,62.6,51.8,68,30.21,10.0,Calm,Calm,-,N/A,,Clear,0,2013-10-13 13:35:00
9:55 AM,62.6,53.6,72,30.21,10.0,Calm,Calm,-,N/A,,Clear,0,2013-10-13 13:55:00
10:15 AM,66.2,51.8,60,30.22,10.0,Calm,Calm,-,N/A,,Clear,0,2013-10-13 14:15:00
10:35 AM,69.8,53.6,56,30.22,10.0,Calm,Calm,-,N/A,,Clear,0,2013-10-13 14:35:00
10:55 AM,69.8,51.8,53,30.23,10.0,East,3.5,-,N/A,,Clear,90,2013-10-13 14:55:00
11:15 AM,71.6,51.8,50,30.22,10.0,Calm,Calm,-,N/A,,Clear,0,2013-10-13 15:15:00
11:55 AM,73.4,51.8,47,30.22,10.0,Calm,Calm,-,N/A,,Clear,0,2013-10-13 15:55:00
12:15 PM,73.4,51.8,47,30.22,10.0,Calm,Calm,-,N/A,,Clear,0,2013-10-13 16:15:00
12:35 PM,77.0,51.8,41,30.21,10.0,Calm,Calm,-,N/A,,Clear,0,2013-10-13 16:35:00
12:55 PM,78.8,50.0,36,30.21,10.0,Calm,Calm,-,N/A,,Clear,0,2013-10-13 16:55:00
1:15 PM,78.8,50.0,36,30.20,10.0,North,4.6,-,N/A,,Clear,10,2013-10-13 17:15:00
1:35 PM,78.8,50.0,36,30.19,10.0,Calm,Calm,-,N/A,,Scattered Clouds,0,2013-10-13 17:35:00
1:55 PM,73.4,53.6,50,30.19,10.0,Calm,Calm,-,N/A,,Mostly Cloudy,0,2013-10-13 17:55:00
2:15 PM,78.8,50.0,36,30.18,10.0,NE,4.6,-,N/A,,Mostly Cloudy,50,2013-10-13 18:15:00
2:35 PM,78.8,50.0,36,30.17,10.0,Calm,Calm,-,N/A,,Scattered Clouds,0,2013-10-13 18:35:00
2:55 PM,78.8,50.0,36,30.16,10.0,Calm,Calm,-,N/A,,Scattered Clouds,0,2013-10-13 18:55:00
3:15 PM,77.0,50.0,39,30.16,10.0,NNW,3.5,-,N/A,,Scattered Clouds,340,2013-10-13 19:15:00
3:35 PM,77.0,53.6,44,30.16,10.0,Calm,Calm,-,N/A,,Scattered Clouds,0,2013-10-13 19:35:00
3:55 PM,78.8,50.0,36,30.15,10.0,NNW,3.5,-,N/A,,Scattered Clouds,340,2013-10-13 19:55:00
4:15 PM,78.8,50.0,36,30.15,10.0,NE,4.6,-,N/A,,Scattered Clouds,40,2013-10-13 20:15:00
4:35 PM,78.8,50.0,36,30.15,10.0,NE,5.8,-,N/A,,Mostly Cloudy,50,2013-10-13 20:35:00
4:55 PM,75.2,51.8,44,30.15,10.0,NE,3.5,-,N/A,,Scattered Clouds,50,2013-10-13 20:55:00
5:15 PM,73.4,51.8,47,30.15,10.0,Calm,Calm,-,N/A,,Clear,0,2013-10-13 21:15:00
5:35 PM,73.4,53.6,50,30.15,10.0,NNW,3.5,-,N/A,,Clear,340,2013-10-13 21:35:00
5:55 PM,73.4,53.6,50,30.15,10.0,NNW,3.5,-,N/A,,Scattered Clouds,340,2013-10-13 21:55:00
6:15 PM,71.6,53.6,53,30.16,10.0,Calm,Calm,-,N/A,,Scattered Clouds,0,2013-10-13 22:15:00
6:35 PM,71.6,55.4,57,30.16,10.0,Calm,Calm,-,N/A,,Scattered Clouds,0,2013-10-13 22:35:00
6:55 PM,69.8,55.4,60,30.16,10.0,NNW,3.5,-,N/A,,Clear,340,2013-10-13 22:55:00
7:15 PM,69.8,53.6,56,30.17,10.0,Calm,Calm,-,N/A,,Clear,0,2013-10-13 23:15:00
7:35 PM,68.0,55.4,64,30.17,10.0,NNW,3.5,-,N/A,,Scattered Clouds,330,2013-10-13 23:35:00
7:55 PM,68.0,55.4,64,30.18,10.0,Calm,Calm,-,N/A,,Scattered Clouds,0,2013-10-13 23:55:00
8:15 PM,68.0,55.4,64,30.19,10.0,Calm,Calm,-,N/A,,Clear,0,2013-10-14 00:15:00
8:35 PM,66.2,55.4,68,30.19,10.0,Calm,Calm,-,N/A,,Clear,0,2013-10-14 00:35:00
8:55 PM,64.4,55.4,73,30.19,10.0,Calm,Calm,-,N/A,,Clear,0,2013-10-14 00:55:00
9:15 PM,66.2,53.6,64,30.19,10.0,Calm,Calm,-,N/A,,Scattered Clouds,0,2013-10-14 01:15:00
9:35 PM,66.2,55.4,68,30.20,10.0,Calm,Calm,-,N/A,,Scattered Clouds,0,2013-10-14 01:35:00
9:55 PM,64.4,55.4,73,30.21,10.0,Calm,Calm,-,N/A,,Clear,0,2013-10-14 01:55:00
10:15 PM,64.4,55.4,73,30.21,10.0,ENE,3.5,-,N/A,,Clear,60,2013-10-14 02:15:00
10:35 PM,62.6,55.4,77,30.21,10.0,North,3.5,-,N/A,,Clear,10,2013-10-14 02:35:00
10:55 PM,62.6,55.4,77,30.21,10.0,Calm,Calm,-,N/A,,Scattered Clouds,0,2013-10-14 02:55:00
11:15 PM,64.4,55.4,73,30.20,10.0,ENE,3.5,-,N/A,,Scattered Clouds,70,2013-10-14 03:15:00
11:35 PM,64.4,55.4,73,30.21,10.0,Calm,Calm,-,N/A,,Clear,0,2013-10-14 03:35:00
11:55 PM,62.6,55.4,77,30.20,10.0,Calm,Calm,-,N/A,,Clear,0,2013-10-14 03:55:00